CAPE
8 0 6 15 24 37 43 21 5 0 0 0 0 0 0 0 0 0 0 0 0 0 378 1202 1762 1720 1661 1484 1403 1503 1370 1340 1341 1242 969 582 170 135 61 31 31 121 133 819
6 9 3 13 23 60 54 30 13 8 1 0 0 0 0 0 0 0 0 0 0 0 395 1216 1749 1577 1669 1567 1486 1442 1146 1134 1251 1303 931 215 66 40 46 158 404 557 1187 1034
25 13 16 25 18 9 3 0 30 28 7 0 0 4 0 0 0 0 0 0 0 0 378 1278 1937 1741 1663 1610 1576 1477 1216 1181 1246 845 329 374 191 169 1492 1624 1443 1176 961 576
14 16 15 18 4 30 6 5 59 43 14 20 4 0 6 0 0 0 0 0 0 0 271 1345 2003 2065 1852 1687 1533 1350 1172 1222 1069 586 360 338 462 1087 1709 1493 1258 707 489 319
8 16 18 11 131 77 2 4 26 105 21 129 19 0 2 0 0 0 0 0 0 0 248 1058 2092 2286 2144 1828 1693 1676 1466 1417 1114 928 718 1019 1233 1267 1269 960 521 157 94 74
13 26 14 39 27 131 63 17 6 0 19 62 26 0 0 3 0 0 0 0 0 0 165 1069 2151 2479 2275 2128 2071 1998 1771 1649 1280 1209 1192 1542 1117 1492 1056 366 222 102 63 35
77 136 22 1 11 13 3 0 2 1 62 3 0 0 0 8 0 0 0 0 0 0 379 817 1716 2535 2419 2315 2261 2226 2018 1904 1461 1483 1456 1503 1540 1334 812 360 227 72 11 2
24 0 18 7 0 5 0 0 9 17 10 2 31 1 0 2 0 0 0 0 0 0 389 790 1335 2221 2359 2340 2298 2223 2188 1930 1791 1755 1584 1675 1555 1094 897 586 276 30 4 3
7 23 0 21 5 44 15 0 0 60 118 85 73 3 40 0 0 0 0 0 0 0 575 1147 1355 1676 2321 2370 2312 2222 2239 1957 1827 1881 1836 1569 1483 1397 942 720 278 82 2 2
2 0 1 25 15 8 2 0 0 3 17 8 63 15 98 0 0 0 0 0 0 64 683 1387 1626 1768 2003 2281 2319 2037 2098 2125 1892 1849 1719 1496 1513 988 505 162 1 2 3 0
8 49 18 3 15 35 63 2 24 30 2 16 87 213 305 0 0 0 0 0 0 139 626 1252 1892 2236 2375 2245 1962 2050 1972 1722 1518 1143 1124 725 512 81 3 3 2 3 0 0
0 75 96 43 94 27 30 10 2 5 59 45 227 62 4 260 233 0 0 1 12 131 399 1071 1757 2092 2340 2241 1967 1687 1365 1298 814 411 171 4 3 4 3 3 3 1 2 0
4 45 117 30 51 1 16 60 1 0 58 0 42 26 328 371 310 66 6 1 138 283 533 1150 1896 2079 2003 1553 1219 968 537 203 3 1 1 2 3 3 3 3 0 0 0 0
1 18 15 1 76 1 1 56 32 0 85 20 74 97 401 524 643 634 252 250 389 469 1011 1430 1773 1656 1160 834 201 76 5 5 3 3 3 3 4 4 2 0 0 0 1 0
1 1 10 155 114 99 42 25 4 10 0 0 0 121 350 454 579 702 816 273 394 1055 1187 1584 1413 462 163 50 4 7 6 5 6 8 7 7 5 4 2 3 3 3 2 1
0 3 35 312 120 40 41 63 15 3 7 0 0 244 344 410 270 317 555 553 571 1001 1422 1286 194 156 2 3 5 6 7 7 6 8 8 5 3 2 2 2 3 4 5 4
1 5 0 132 233 65 26 25 40 24 0 9 175 296 187 182 5 2 1 16 48 303 332 92 83 3 1 2 5 6 4 3 5 6 3 3 1 2 2 0 0 0 0 0
3 7 4 102 209 56 233 163 2 24 96 124 1 384 87 0 3 8 7 1 1 1 1 4 4 2 1 3 3 3 2 3 2 2 2 2 1 1 1 1 0 1 0 0
3 2 2 103 12 4 61 340 367 345 385 573 408 537 84 0 1 0 8 4 5 5 5 5 5 3 1 3 3 2 2 1 0 1 0 0 0 0 0 0 0 0 0 0
0 2 3 2 27 95 126 203 373 427 178 253 421 538 103 165 441 1 5 3 1 2 4 3 3 3 3 3 0 1 2 0 0 0 0 0 0 0 0 0 0 0 0 0
3 10 4 13 25 44 15 209 533 127 51 48 232 522 453 326 2 6 5 2 2 3 2 2 2 4 2 0 1 0 0 0 0 0 0 0 0 0 0 0 0 0 0 0
0 1 0 2 12 18 18 73 67 4 4 8 221 468 144 0 7 9 7 4 2 2 1 2 0 1 2 0 0 1 2 0 0 0 0 0 0 0 0 0 0 0 0 2
3 8 0 9 8 4 1 4 1 4 7 2 125 209 0 1 8 9 7 6 5 3 2 2 2 2 1 0 0 0 2 0 0 0 0 0 0 0 0 0 0 0 0 0
3 6 13 19 0 0 0 0 2 3 4 1 27 46 0 1 7 9 6 5 4 3 3 2 4 2 2 0 0 0 0 0 0 0 0 0 0 0 0 0 0 0 0 0
2 8 4 17 1 1 4 0 8 2 0 13 19 17 2 0 6 4 5 2 1 2 2 1 1 0 1 0 0 0 0 0 0 0 0 0 0 0 0 0 0 0 0 0
2 7 16 14 10 7 11 3 7 1 0 1 0 0 1 0 1 2 4 0 0 0 0 0 1 0 1 1 2 2 2 0 0 0 0 0 0 0 0 0 0 0 0 0
CIN
-3 -3 -3 -2 -5 -11 -8 -18 -12 -0 -0 -0 -0 -0 -0 -0 -0 -0 -0 -0 -0 -0 -4 -2 -3 -10 -44 -64 -84 -89 -96 -89 -103 -85 -95 -123 -225 -274 -325 -371 -449 -365 -338 -75
-8 -4 -5 -8 -5 -5 -3 -3 -8 -10 -3 -0 -0 -2 -0 -0 -0 -0 -0 -0 -0 -0 -5 -2 -2 -13 -35 -64 -87 -96 -123 -120 -183 -133 -122 -235 -297 -345 -318 -273 -185 -135 -44 -31
-4 -6 -6 -5 -5 -1 -1 -0 -3 -9 -8 -3 -2 -9 -0 -1 -0 -0 -0 -0 -0 -0 -12 -3 -2 -6 -41 -66 -87 -95 -110 -108 -82 -189 -257 -243 -234 -241 -60 -45 -25 -40 -52 -70
-5 -6 -4 -7 -9 -5 -21 -28 -44 -7 -23 -24 -8 -2 -4 -0 -1 -0 -0 -0 -0 -0 -36 -3 -2 -1 -42 -67 -70 -81 -90 -81 -83 -179 -219 -258 -176 -31 -3 -23 -14 -84 -118 -104
-25 -7 -5 -5 -4 -8 -3 -7 -15 -4 -7 -5 -10 -0 -6 -0 -0 -0 -0 -0 -0 -0 -48 -12 -2 -2 -20 -35 -43 -50 -66 -68 -93 -154 -175 -72 -11 -21 -62 -64 -144 -265 -295 -248
-2 -7 -4 -2 -26 -20 -4 -7 -8 -12 -38 -0 -14 -0 -0 -4 -0 -0 -0 -0 -0 -0 -46 -3 -1 -2 -9 -9 -22 -31 -61 -78 -121 -108 -58 -15 -19 -5 -53 -224 -235 -277 -259 -293
-6 -3 -5 -1 -28 -5 -1 -0 -0 -0 -2 -17 -3 -0 -0 -11 -0 -0 -0 -0 -0 -0 -5 -6 -2 -1 -1 -1 -12 -20 -49 -79 -107 -53 -37 -21 -4 -13 -60 -155 -171 -268 -273 -0
-2 -0 -3 -9 -0 -6 -3 -0 -28 -22 -11 -15 -22 -2 -0 -5 -0 -0 -0 -0 -0 -0 -7 -5 -4 -1 -3 -14 -19 -33 -39 -59 -96 -65 -24 -18 -10 -11 -17 -44 -95 -283 -0 -0
-2 -9 -4 -29 -15 -6 -3 -0 -0 -41 -15 -19 -9 -14 -131 -0 -0 -0 -0 -0 -0 -0 -4 -6 -3 -2 -1 -2 -2 -15 -23 -17 -53 -12 -6 -10 -5 -2 -1 -23 -113 -240 -0 -0
-1 -0 -1 -27 -31 -36 -12 -0 -0 -12 -43 -8 -7 -16 -25 -0 -0 -0 -0 -0 -0 -45 -3 -5 -4 -1 -2 -2 -2 -11 -18 -17 -16 -5 -7 -7 -2 -11 -94 -283 -0 -0 -0 -0
-0 -0 -6 -3 -19 -11 -5 -9 -15 -7 -7 -53 -12 -25 -15 -0 -0 -0 -0 -0 -0 -44 -6 -7 -3 -2 -3 -10 -21 -19 -19 -21 -39 -94 -64 -108 -141 -413 -103 -0 -0 -0 -0 -0
-0 -1 -6 -4 -5 -30 -60 -2 -30 -64 -53 -124 -20 -70 -0 -3 -5 -0 -0 -2 -48 -27 -8 -6 -5 -1 -1 -1 -15 -12 -44 -65 -182 -277 -363 -28 -0 -0 -0 -0 -0 -0 -0 -0
-1 -1 -2 -5 -4 -71 -82 -13 -6 -0 -68 -0 -61 -89 -2 -4 -4 -3 -1 -1 -11 -3 -5 -6 -3 -5 -5 -47 -67 -164 -306 -452 -0 -0 -0 -0 -0 -0 -0 -0 -0 -0 -0 -0
-0 -1 -0 -5 -54 -17 -60 -13 -30 -0 -13 -9 -34 -5 -2 -2 -7 -9 -3 -3 -3 -7 -5 -5 -3 -27 -52 -147 -422 -494 -0 -0 -0 -0 -0 -0 -0 -0 -0 -0 -0 -0 -0 -0
-1 -0 -10 -3 -5 -6 -20 -5 -3 -19 -0 -0 -0 -3 -3 -2 -2 -2 -6 -4 -3 -5 -5 -4 -56 -208 -356 -459 -35 -0 -0 -0 -0 -0 -0 -0 -0 -0 -0 -0 -0 -0 -0 -0
-0 -0 -20 -4 -5 -20 -10 -4 -2 -4 -7 -0 -3 -2 -43 -29 -48 -50 -28 -79 -69 -3 -2 -81 -274 -351 -363 -0 -0 -0 -0 -0 -0 -0 -0 -0 -0 -0 -0 -0 -0 -0 -0 -0
-0 -0 -0 -4 -3 -11 -23 -4 -2 -20 -0 -3 -12 -4 -39 -104 -87 -0 -0 -206 -275 -194 -176 -283 -326 -0 -0 -0 -0 -0 -0 -0 -0 -0 -0 -0 -0 -0 -0 -0 -0 -0 -0 -0
-0 -0 -1 -2 -9 -6 -11 -6 -5 -4 -6 -5 -1 -13 -104 -0 -0 -0 -0 -0 -0 -0 -0 -0 -0 -0 -0 -0 -0 -0 -0 -0 -0 -0 -0 -0 -0 -0 -0 -0 -0 -0 -0 -0
-1 -0 -0 -0 -6 -6 -1 -9 -2 -3 -4 -5 -7 -23 -125 -0 -147 -0 -0 -0 -0 -0 -0 -0 -0 -0 -0 -0 -0 -0 -0 -0 -0 -0 -0 -0 -0 -0 -0 -0 -0 -0 -0 -0
-1 -0 -0 -1 -3 -0 -0 -6 -17 -3 -11 -58 -40 -6 -54 -68 -10 -44 -0 -0 -0 -0 -0 -0 -0 -0 -0 -0 -0 -0 -0 -0 -0 -0 -0 -0 -0 -0 -0 -0 -0 -0 -0 -0
-0 -1 -0 -4 -0 -1 -5 -14 -21 -2 -33 -96 -57 -9 -2 -30 -62 -0 -0 -0 -0 -0 -0 -0 -0 -0 -0 -0 -1 -1 -0 -0 -0 -0 -0 -0 -0 -0 -0 -0 -0 -0 -0 -0
-0 -0 -0 -0 -9 -2 -24 -64 -34 -0 -0 -147 -69 -22 -100 -0 -0 -0 -0 -0 -0 -0 -0 -0 -0 -0 -0 -0 -0 -0 -0 -0 -0 -0 -0 -0 -0 -0 -0 -0 -0 -0 -1 -1
-0 -0 -0 -4 -1 -0 -0 -0 -0 -0 -0 -107 -84 -50 -0 -0 -0 -0 -0 -0 -0 -0 -0 -0 -0 -0 -0 -0 -0 -0 -0 -0 -0 -0 -0 -0 -0 -0 -0 -0 -0 -0 -0 -0
-2 -6 -0 -0 -0 -0 -0 -0 -1 -0 -0 -5 -113 -92 -0 -0 -0 -0 -0 -0 -0 -0 -0 -0 -0 -0 -0 -0 -0 -0 -0 -0 -0 -0 -0 -0 -0 -0 -0 -0 -0 -0 -0 -0
-2 -1 -3 -2 -0 -4 -0 -0 -1 -0 -0 -83 -117 -101 -1 -0 -0 -0 -0 -0 -0 -0 -0 -0 -0 -0 -0 -0 -0 -0 -0 -0 -0 -0 -0 -0 -0 -0 -0 -0 -0 -0 -0 -0
-2 -2 -0 -2 -0 -2 -1 -0 -1 -0 -0 -0 -0 -0 -0 -0 -0 -0 -0 -0 -0 -0 -0 -0 -0 -0 -0 -0 -1 -1 -1 -0 -0 -0 -0 -0 -0 -0 -0 -0 -0 -0 -0 -0
Wind_Speed
13 22 22 27 35 42 46 48 50 41 42 41 49 51 47 42 42 46 48 40 37 31 28 25 25 22 20 18 16 13 11 10 11 12 11 12 14 15 16 13 10 5 2 5
5 4 2 4 4 33 38 46 51 45 37 41 49 44 48 46 40 40 44 41 39 30 28 26 25 23 21 20 17 15 13 12 12 14 15 12 7 8 9 9 11 3 6 6
5 5 7 4 3 16 35 41 42 47 37 41 42 47 43 47 42 35 42 43 39 34 29 27 26 24 21 20 19 17 15 13 10 7 9 6 8 2 11 9 10 8 7 7
4 6 3 2 9 16 31 32 37 41 38 44 39 51 44 50 51 50 40 42 39 37 30 28 26 25 21 19 18 17 15 12 9 7 8 6 5 6 6 13 5 7 8 7
2 2 4 10 16 17 29 28 31 33 41 39 39 47 43 45 56 53 48 42 40 34 30 29 27 24 20 18 16 13 12 10 9 10 6 6 7 9 5 6 5 6 7 7
11 6 7 7 14 23 27 25 27 24 34 42 41 41 48 41 52 52 46 43 40 32 30 26 25 22 21 18 15 14 12 10 9 8 8 9 7 6 7 5 6 5 6 7
5 8 10 9 17 22 26 23 21 18 24 30 27 36 36 24 44 49 45 43 38 31 28 27 24 22 20 18 15 12 12 10 9 8 9 7 7 7 8 4 4 6 8 12
2 12 13 15 21 22 30 30 16 11 17 21 19 34 36 33 34 41 40 38 35 33 27 28 24 22 20 17 15 12 11 10 9 12 8 9 8 6 5 4 6 9 13 13
7 14 15 14 23 23 25 24 22 20 26 13 22 24 20 18 27 32 34 35 33 31 26 27 26 21 20 18 15 13 11 9 6 4 5 2 3 8 8 10 12 14 13 13
6 4 13 16 22 27 26 17 16 22 24 17 14 25 16 19 27 31 30 31 30 29 26 27 24 21 19 17 16 12 9 7 5 5 6 8 10 12 9 13 13 13 13 12
8 11 13 15 22 26 23 27 18 21 7 15 11 14 13 16 26 29 27 25 26 30 26 26 23 19 17 14 13 12 9 6 6 6 8 10 10 10 12 13 14 13 12 10
6 10 11 12 20 25 24 21 19 18 11 15 16 21 6 11 14 25 26 22 23 27 26 22 22 21 16 14 11 12 8 5 5 7 7 7 9 10 11 12 13 13 12 12
6 14 14 16 19 24 24 21 14 18 16 15 22 3 2 7 12 14 22 24 20 24 21 19 18 18 14 12 10 9 7 6 6 4 4 6 7 8 10 11 12 13 12 13
10 10 18 13 10 18 25 20 7 21 16 7 10 5 5 3 7 8 16 16 17 21 18 16 16 13 12 11 8 7 5 3 2 3 4 5 7 8 9 10 10 11 11 11
14 13 16 19 16 17 22 22 20 15 16 9 10 3 2 3 4 10 12 17 20 17 16 15 13 13 10 7 6 5 4 3 2 3 4 6 7 9 10 10 11 11 12 13
5 8 11 14 19 21 18 20 20 21 16 7 20 13 1 3 3 6 10 11 11 18 16 13 12 10 8 8 7 5 3 2 2 4 5 7 8 10 11 11 12 13 14 14
9 9 11 16 18 24 21 18 16 18 17 16 12 8 4 8 6 9 11 12 11 11 10 11 10 9 9 8 6 4 2 1 3 5 6 7 8 10 11 12 13 13 14 14
15 18 13 14 17 24 13 11 15 14 13 15 12 7 7 8 8 9 11 14 13 11 10 10 9 9 9 7 4 2 2 4 5 6 7 8 9 11 12 12 13 14 15 15
20 19 15 15 16 16 13 14 15 16 15 16 19 11 11 9 8 11 12 13 15 15 11 9 9 9 7 5 4 4 3 4 5 7 8 10 10 11 12 12 13 14 14 16
19 19 18 17 17 15 18 20 21 22 19 19 19 16 14 14 18 14 12 11 10 10 10 9 9 7 6 4 5 5 5 6 7 9 10 11 12 12 12 13 13 14 14 16
17 18 19 18 19 15 21 20 20 23 20 22 21 20 19 15 13 6 7 6 6 7 7 7 7 7 6 5 5 5 6 6 8 10 11 11 11 11 14 13 13 13 15 17
16 16 18 16 16 11 22 15 12 21 23 22 22 19 9 6 5 4 4 6 5 5 5 6 7 6 4 5 6 6 6 7 9 10 10 10 10 12 13 13 13 13 14 16
17 16 19 18 19 19 19 17 18 21 22 22 19 8 5 4 4 5 5 3 3 3 4 5 7 5 4 4 6 9 7 7 7 7 10 11 11 12 13 13 14 13 14 16
21 16 20 23 20 23 18 20 20 21 23 23 18 8 5 4 4 4 4 4 2 3 6 6 8 8 7 6 7 8 8 7 7 9 9 9 11 12 14 13 14 15 17 17
25 24 24 24 22 22 21 23 23 22 20 12 9 6 3 3 3 2 3 4 2 4 6 5 6 5 5 5 7 7 8 7 8 10 10 10 11 12 12 14 15 16 17 19
19 23 24 23 24 23 24 23 23 21 19 16 11 6 2 3 3 3 2 3 6 7 6 6 5 5 3 4 6 8 10 10 10 10 11 12 13 14 14 14 16 18 18 19
Wind_Direction
357 342 322 307 284 272 263 263 254 255 252 248 242 243 240 245 236 232 232 232 233 232 234 228 226 221 219 220 221 216 216 223 227 241 242 252 260 268 278 291 301 329 319 355
16 304 307 357 323 278 264 256 251 255 249 246 241 244 239 235 242 232 228 230 230 231 230 226 223 218 217 221 223 225 225 223 218 244 252 256 273 281 285 294 298 342 343 349
259 281 359 331 204 205 263 254 248 245 247 243 243 242 238 233 234 235 232 230 228 229 226 225 221 220 219 222 224 226 230 231 232 213 223 258 262 180 285 311 315 333 335 334
318 20 206 187 196 197 243 244 243 247 242 241 237 235 238 229 230 232 234 226 225 225 225 224 222 221 220 223 227 229 232 231 217 186 171 190 218 257 297 293 358 338 330 331
254 33 175 210 208 179 203 222 249 254 240 243 233 234 239 230 226 227 227 227 223 220 222 223 222 221 219 218 218 218 220 218 186 175 216 225 259 288 330 340 356 336 337 341
253 207 165 157 191 215 216 211 226 250 241 243 233 229 233 228 224 224 223 224 221 216 218 221 220 216 215 216 216 218 213 209 190 196 234 249 266 290 314 346 350 4 8 353
227 195 160 118 194 190 194 186 212 235 234 238 224 224 228 219 226 218 218 220 217 213 213 216 213 209 208 207 209 211 211 205 217 223 246 260 285 304 316 337 344 347 341 335
132 71 112 148 173 179 192 179 213 241 241 231 217 224 230 248 220 215 216 217 214 213 211 215 213 208 206 206 207 214 215 215 222 251 249 273 289 312 318 331 338 337 333 334
87 94 94 150 199 182 195 202 245 248 218 235 221 209 245 240 205 208 208 211 210 209 209 212 214 209 209 208 210 220 216 223 223 208 268 291 303 309 320 334 336 338 342 341
145 121 111 133 202 214 206 177 206 200 186 233 209 216 240 222 205 205 204 204 206 207 209 212 211 213 214 213 218 223 223 225 240 271 302 310 312 318 330 334 339 342 345 351
214 126 101 124 190 220 198 215 179 216 295 223 180 228 258 208 210 205 203 200 205 210 210 211 208 209 209 206 218 226 227 232 264 291 305 315 316 332 334 339 345 351 0 12
161 125 115 129 215 237 235 237 251 238 253 228 217 225 224 197 212 206 208 203 201 209 210 208 209 212 201 210 206 230 232 248 274 296 310 317 329 340 347 358 6 11 18 17
194 150 115 112 131 226 228 238 246 231 213 277 220 37 82 196 205 197 202 211 207 206 205 203 201 207 212 209 213 228 243 266 287 302 319 336 352 1 13 21 26 25 26 29
211 199 252 170 136 234 225 240 115 226 247 335 211 69 92 154 196 205 207 210 205 204 199 198 198 194 196 210 215 222 244 263 294 323 342 357 7 20 22 27 30 32 36 26
269 222 253 265 242 235 233 246 215 222 252 257 198 102 194 226 212 218 226 222 210 205 186 193 184 194 193 200 207 222 235 265 305 348 3 4 16 24 26 26 28 24 16 17
197 131 212 188 200 212 241 242 248 244 246 274 226 35 221 275 260 231 227 223 214 213 211 182 189 188 193 202 206 206 235 264 345 1 8 19 28 26 21 19 13 9 9 8
196 250 218 132 196 190 230 249 263 261 266 278 282 332 277 265 276 255 241 230 221 218 195 194 195 195 195 192 195 203 233 349 2 13 14 19 14 14 19 27 21 14 12 13
216 263 224 175 199 153 262 289 266 271 276 273 74 330 298 281 274 264 254 236 231 226 210 205 202 190 198 193 192 152 80 56 41 34 29 26 27 29 28 27 20 18 21 12
271 266 230 227 216 233 308 288 273 271 273 291 309 306 284 284 279 267 253 244 237 235 228 215 202 197 190 170 147 114 76 50 46 39 39 45 43 40 37 29 23 23 8 359
281 232 235 247 255 279 320 289 276 253 260 294 288 293 282 265 259 265 260 252 243 239 227 207 192 179 170 157 130 101 75 59 50 51 46 42 41 37 33 32 19 13 1 0
235 217 223 236 222 308 307 301 262 241 265 276 278 275 269 269 277 272 258 250 245 235 221 200 187 172 156 128 107 85 65 56 49 55 54 46 35 20 36 16 6 8 360 357
238 235 245 247 225 8 320 316 288 271 274 266 272 271 301 305 292 288 268 240 236 224 197 185 155 148 134 110 94 71 58 59 59 53 45 26 34 34 25 4 8 357 10 8
249 269 251 264 276 319 290 323 296 279 275 270 275 303 321 335 319 282 260 246 232 201 167 162 143 131 96 81 83 83 64 52 40 34 45 42 37 24 12 9 12 10 7 8
290 336 259 279 304 300 304 303 297 297 281 264 264 291 312 330 314 292 250 239 125 129 129 129 125 113 97 77 67 67 63 43 39 38 28 25 23 13 1 358 347 357 354 2
292 298 291 290 296 301 278 302 300 305 292 294 283 279 308 27 350 303 246 230 170 138 130 140 129 118 102 86 66 54 57 50 40 40 35 20 20 21 17 4 353 13 0 355
319 308 298 294 310 274 271 284 288 296 278 272 261 263 284 31 63 64 92 138 199 185 154 143 127 112 102 72 64 66 69 65 57 55 55 49 52 51 44 36 29 20 21 16